Location: Montanara
(45.1333°N, 10.7333°E)
Time: 12:41:38
(UTC+00:00)

Daily predictions for brighter satellites

Satellite Brightness Start Highest point End
(mag) Time Altitude Azimuth Time Altitude Azimuth Time Altitude Azimuth
Cosmos 2360 Rocket 4.3 19:19:55 10° N 19:22:36 13° NE 19:25:17 10° ENE
Cosmos 1633 3.1 19:19:23 10° SSE 19:22:45 39° E 19:26:09 10° NNE
Cosmos 1606 2.7 19:27:27 10° N 19:31:13 65° E 19:34:58 10° SSE
Nadezhda 4 Rocket 4.2 19:25:22 10° SSE 19:31:18 53° E 19:37:19 10° NNE
Cosmos 1242 Rocket 4.1 19:30:27 10° NNW 19:33:46 36° W 19:37:02 10° SSW
Landsat 7 4.0 19:32:46 10° SSE 19:37:25 57° ENE 19:42:06 10° N
SPOT 3 Rocket 3.8 19:34:03 10° SSE 19:39:08 54° ENE 19:44:14 10° N
ISS -3.4 19:36:28 10° WNW 19:39:50 61° NNE 19:42:58 11° ESE
Cosmos 1825 4.1 19:36:35 10° SW 19:39:59 33° WNW 19:43:27 10° N
IGS 5A 3.5 19:36:31 10° SSE 19:40:38 67° ENE 19:44:45 10° N
BREEZE-M DEB (TANK) 4.0 19:30:54 10° W 19:43:31 61° NNW 19:47:08 10° ENE
Cosmos 2058 3.9 19:40:42 10° SSW 19:44:45 50° WNW 19:48:52 10° N
Cosmos 1980 Rocket 2.3 19:39:25 10° NNW 19:45:04 82° WSW 19:50:43 10° SSE
Cosmos 2369 4.2 19:39:48 10° NNW 19:45:22 60° WSW 19:50:54 10° S
MetOp-B 4.4 19:40:22 10° SE 19:45:33 54° ENE 19:50:47 10° N
CZ-2C R/B 4.4 19:43:35 10° NNE 19:47:43 34° E 19:51:45 10° SSE
Cosmos 2221 3.2 19:45:54 10° NNW 19:50:08 56° W 19:54:21 10° S
RESURS DK-1 2.9 19:46:21 10° SW 19:50:28 63° WNW 19:54:38 10° NNE
ERBS 4.2 19:48:41 10° WNW 19:51:13 21° SW 19:53:44 10° S
USA 245 4.3 19:47:53 12° SE 19:52:20 42° ENE 19:56:20 10° N
BREEZE-M DEB (TANK) 3.2 19:50:58 10° SW 19:54:18 66° SE 20:05:22 10° ENE
Meteor 2-15 4.5 19:48:57 10° N 19:54:59 64° ENE 20:00:51 11° SSE
Cosmos 2322 Rocket 3.3 19:50:42 10° N 19:55:40 31° NE 19:59:58 13° ESE
Cosmos 304 Rocket 4.1 19:55:38 10° NNW 20:00:21 53° ENE 20:03:55 17° SE
BREEZE-M DEB (TANK) 3.6 19:57:32 10° WNW 20:00:45 90° S 20:09:25 13° ESE
Cosmos 1538 Rocket 3.9 19:55:56 10° SSW 20:01:09 83° ESE 20:06:22 10° NNE
Cosmos 1933 3.7 19:57:44 10° N 20:01:41 48° ENE 20:04:32 17° SSE
Resurs 01 Rocket 1.8 19:58:52 10° S 20:03:17 72° WSW 20:07:45 10° NNW
Cosmos 2151 2.9 20:01:17 10° S 20:05:29 68° E 20:09:44 10° NNE
ERS-2 2.9 20:02:22 10° N 20:05:56 53° WNW 20:09:29 10° SSW
Cosmos 2098 Rocket 2.8 20:03:47 10° SSW 20:06:49 62° W 20:10:24 10° N
Gbstr 26 Del rocket 3.1 20:06:15 10° NW 20:09:57 57° NNE 20:12:57 16° E
Meteor 2-3 Rocket 3.8 20:05:05 10° S 20:10:37 60° E 20:16:16 10° NNE
CARTOSAT-1 4.0 20:09:29 19° SE 20:12:20 48° ENE 20:16:30 10° N
Meteor 2-15 Rocket 4.4 20:07:04 10° N 20:13:09 69° E 20:18:11 15° SSE
Cosmos 2219 Rocket 4.4 20:13:47 10° N 20:16:38 14° NE 20:19:30 10° ENE
Ariane Rocket 4.3 20:13:04 10° SSW 20:17:46 38° W 20:22:30 10° NNW
SL-16 R/B 2.4 20:18:48 10° NNW 20:24:27 62° ENE 20:28:03 22° SE
Cosmos 1782 3.0 20:24:10 10° N 20:28:09 57° E 20:30:02 28° SSE
Cosmos 371 Rocket 4.1 20:24:20 10° NNW 20:28:56 47° WSW 20:32:51 14° S
ARIANE 5 R/B 2.8 20:26:51 24° SE 20:29:25 61° ENE 20:33:50 10° N
Cosmos 1271 Rocket 2.7 20:30:43 10° NNW 20:34:44 87° W 20:36:55 26° S
SPOT 1/Viking Rocket 3.9 20:31:18 15° S 20:35:36 65° WSW 20:40:49 10° NNW
USA 276 2.0 20:34:25 10° WNW 20:37:35 80° NNE 20:38:32 41° ESE
Cosmos 2195 Rocket 4.5 20:31:38 10° S 20:37:46 87° W 20:43:54 10° N
BREEZE-M DEB (TANK) 2.8 20:35:21 10° WNW 20:38:35 67° SSW 20:43:14 22° SE
Cosmos 1766 Rocket 3.7 20:37:42 27° SSE 20:39:53 56° E 20:44:12 10° NNE
Cosmos 1151 Rocket 3.1 20:37:25 10° N 20:41:46 64° E 20:43:40 32° SSE
ATLAS 5 CENTAUR R/B 4.3 20:39:29 10° NNW 20:43:02 18° NNE 20:46:56 10° ENE
Cosmos 1328 Rocket 3.8 20:41:38 10° N 20:46:01 54° ENE 20:47:39 34° SE
Cosmos 923 Rocket 4.0 20:42:11 10° SSW 20:47:31 89° WNW 20:52:55 10° NNE
Terra 2.0 20:47:56 31° SE 20:49:59 57° ENE 20:54:40 10° N
ATLAS 3B R/B 3.6 20:44:55 10° NW 20:51:36 44° WSW 20:56:42 18° S
SPOT 5 2.5 20:50:48 34° SSE 20:52:40 84° ENE 20:57:04 10° NNW
USA 267 3.7 20:48:29 10° ENE 20:54:27 36° SE 20:59:02 16° S
Cosmos 1092 Rocket 4.5 20:49:44 10° SSW 20:55:54 61° WNW 21:02:11 10° N
Cosmos 2082 Rocket 4.4 20:51:47 10° WSW 20:56:30 27° NW 21:01:16 10° N
Cosmos 2056 Rocket 3.7 20:54:40 10° NNW 21:00:00 61° ENE 21:02:09 35° SE
NOSS 2-1 (C) 3.4 21:00:51 42° ENE 21:00:51 42° ENE 21:03:22 10° NE
BREEZE-M DEB (TANK) 3.4 21:01:06 10° WNW 21:03:00 28° N 21:03:12 28° N
ERS-1 Rocket 3.0 21:00:35 30° S 21:03:04 79° WSW 21:08:08 10° NNW
SL-27 R/B 2.9 21:06:23 45° E 21:06:23 45° E 21:09:32 10° NNE
Meteor 2-21 4.4 21:02:38 25° S 21:06:22 76° E 21:12:32 10° NNE
NOSS 2-1 (D) 3.0 21:08:18 55° ENE 21:08:18 55° ENE 21:11:06 10° NE
Cosmos 2360 Rocket 2.4 21:02:14 10° NNW 21:07:49 62° ENE 21:10:08 35° SE
Cosmos 2026 Rocket 4.5 21:02:37 10° SSW 21:08:53 61° WNW 21:15:07 10° N
GP-B 4.2 21:09:07 10° NNW 21:13:18 42° W 21:16:14 18° SW
Cosmos 1833 4.3 21:14:09 36° SSE 21:16:16 54° ESE 21:21:54 10° NE
ISS -2.0 21:13:41 10° W 21:15:56 22° WSW 21:15:56 22° WSW
Spot 2 Rocket 4.5 21:14:48 21° SSW 21:17:47 41° W 21:22:38 10° NNW
Cosmos 2333 Rocket 3.1 21:13:03 10° NNW 21:18:19 39° NE 21:20:38 27° ESE
Meteor 1-10 Rocket 4.1 21:15:23 10° N 21:20:57 73° ENE 21:22:51 42° SSE
Cosmos 1371 Rocket 4.0 21:16:06 10° NNW 21:21:29 81° WSW 21:23:22 42° S
Cosmos 2112 Rocket 4.2 21:17:49 15° SSW 21:22:11 70° WNW 21:27:28 10° NNE
Cosmos 1812 2.9 21:18:33 10° NNW 21:22:24 66° W 21:23:03 54° SSW
Cosmos 1680 Rocket 4.0 21:17:30 10° SW 21:22:43 60° WNW 21:27:56 10° NNE
Cosmos 1500 Rocket 4.0 21:22:35 43° E 21:22:47 43° E 21:27:00 10° NNE
Cosmos 220 Rocket 4.2 21:20:34 10° NNW 21:24:51 61° WSW 21:25:50 47° SSW
Okean 3 Rocket 4.4 21:24:58 23° SW 21:27:30 48° WNW 21:31:53 10° N
USA 234 4.1 21:22:42 11° E 21:28:38 46° NNE 21:34:50 10° NW
Cosmos 2322 4.4 21:23:13 10° NNW 21:28:42 44° ENE 21:30:49 31° ESE
Cosmos 292 Rocket 3.8 21:27:57 10° NNW 21:32:44 71° ENE 21:33:40 55° SE
Meteor 2-16 Rocket 4.3 21:35:25 38° S 21:37:54 84° E 21:44:01 10° N
Cosmos 2237 Rocket 4.3 21:34:48 10° N 21:38:34 18° NE 21:42:14 10° E
Cosmos 2322 Rocket 2.8 21:34:32 10° NW 21:39:53 46° WSW 21:41:46 34° SSW
Cosmos 1408 Rocket 3.8 21:40:13 46° SW 21:41:18 65° W 21:45:38 10° N
Cosmos 1743 Rocket 3.5 21:42:22 67° SE 21:42:40 70° E 21:47:05 10° NNE
Cosmos 2285 Rocket 4.4 21:39:25 10° NNW 21:45:34 52° ENE 21:47:43 37° ESE
IRIDIUM 106 4.4 21:42:15 10° N 21:47:27 61° E 21:48:18 53° SE
Cosmos 2315 Rocket 4.1 21:44:07 10° N 21:50:26 67° E 21:52:17 46° SE
Sich 1 3.9 21:51:50 36° ENE 21:51:50 36° ENE 21:55:22 10° NNE
Cosmos 2084 4.3 21:48:52 16° WSW 21:51:56 47° NW 21:55:59 10° NNE
Cosmos 2266 Rocket 3.9 21:53:30 41° SSW 21:55:49 83° W 22:02:05 10° N
Gbstr 26 Del rocket 4.3 21:53:09 10° WNW 21:55:27 25° WSW 21:55:27 25° WSW
Cosmos 1048 Rocket 4.2 21:59:25 49° E 21:59:25 49° E 22:04:16 10° NNE
Cosmos 2219 Rocket 2.3 21:56:09 10° NNW 22:01:45 66° ENE 22:02:58 51° ESE
Cosmos 2228 Rocket 2.9 22:01:37 10° N 22:06:04 85° E 22:06:05 85° E
NOSS 2-1 (E) 4.4 22:05:22 30° WNW 22:06:05 34° NW 22:09:16 10° NNE
H-2A R/B 4.4 22:02:14 10° N 22:06:13 43° WNW 22:07:15 36° WSW
SL-16 R/B 3.9 22:03:52 10° NW 22:08:02 21° W 22:09:55 18° SW
COSMOS 2455 2.7 22:09:10 52° SSW 22:10:43 79° ESE 22:16:46 10° NE
NOSS 3-1 (C) 4.0 22:03:32 10° NW 22:11:07 86° SW 22:14:30 42° SSE
Cosmos 2333 4.1 22:05:42 10° NNW 22:11:18 76° WSW 22:12:13 61° S
Cosmos 1420 Rocket 4.5 22:07:47 10° NNW 22:12:54 49° WSW 22:13:43 45° SW
COSMOS 2428 2.8 22:10:47 10° NNW 22:16:30 70° ENE 22:17:35 56° ESE
Cosmos 1515 4.5 22:17:53 10° N 22:20:48 46° NNE 22:20:48 46° NNE
Spot 4 3.7 22:21:45 82° S 22:21:59 89° WSW 22:26:50 10° NNW
USA 229 DEB 3.9 22:17:57 10° NW 22:25:18 78° NE 22:28:16 42° SE
USA 229 3.9 22:18:03 10° NW 22:25:24 77° NE 22:28:23 41° SE
Terra 3.9 22:26:49 16° WSW 22:28:06 17° W 22:31:14 10° NW
ATLAS 5 CENTAUR R/B 2.6 22:23:10 10° NNW 22:28:39 60° NE 22:30:39 41° ESE
COSMOS 2487 3.9 22:31:49 35° NNW 22:31:49 35° NNW 22:34:05 10° N
Cosmos 1452 Rocket 3.5 22:27:17 10° NNW 22:32:30 64° WSW 22:32:49 63° SW
Cosmos 1707 Rocket 3.7 22:28:20 10° N 22:32:18 67° NE 22:32:18 67° NE
ALOS 2 2.7 22:33:57 67° NE 22:33:57 67° NE 22:38:04 10° N
USA 267 3.4 22:31:14 10° NE 22:37:46 74° NW 22:44:18 10° WSW
SL-08 ROCKET BODY 4.3 22:44:13 64° SSE 22:45:06 75° E 22:51:15 10° NNE
NOSS 3-1 (A) 4.0 22:38:13 10° NW 22:45:49 85° SW 22:48:48 46° SSE
Cosmos 1805 Rocket 4.5 22:49:13 40° W 22:49:25 40° WNW 22:53:37 10° N
Cosmos 2360 Rocket 3.8 22:47:12 10° NW 22:51:18 21° W 22:51:53 21° WSW
Cosmos 1110 Rocket 3.9 22:53:15 10° NNW 22:58:35 73° WSW 22:58:40 73° WSW
Cosmos 1980 3.9 22:54:44 10° NNW 23:00:22 62° ENE 23:01:19 54° ESE
Cosmos 2333 Rocket 3.1 22:57:26 10° NW 23:02:31 35° WSW 23:02:38 35° WSW
Cosmos 1331 Rocket 3.9 22:58:47 10° NNW 23:03:58 73° WSW 23:03:58 73° WSW
USA 234 3.1 23:10:02 57° SSE 23:11:25 75° SW 23:18:00 10° NW
Cosmos 1340 Rocket 4.2 23:13:35 31° NE 23:13:35 31° NE 23:16:05 10° NNE
Nimbus 7 Rocket 4.3 23:07:07 10° NNE 23:13:11 88° ESE 23:14:02 68° SSW
NOSS 0 Rocket 3.8 23:09:05 10° NNW 23:15:19 75° WSW 23:16:01 67° SSW
Cosmos 2297 Rocket 2.3 23:17:11 60° ESE 23:17:12 60° ESE 23:22:48 10° NNE
Okean 1-7 4.0 23:15:18 10° N 23:18:54 40° ENE 23:18:54 40° ENE
Lacrosse 5 2.4 23:21:59 48° E 23:21:59 48° E 23:25:52 10° NE
Cosmos 2237 Rocket 2.0 23:17:47 10° NNW 23:23:30 86° ENE 23:24:02 74° SE
Cosmos 2084 Rocket 4.0 23:20:45 10° NW 23:24:08 56° NNW 23:24:08 56° NNW
Cosmos 2242 Rocket 4.2 23:21:11 10° N 23:25:08 49° ENE 23:25:08 49° ENE
NOSS 2-2 (E) 4.5 23:20:51 10° NW 23:26:20 80° NE 23:28:32 46° SE
Cosmos 1470 Rocket 3.9 23:29:03 60° NNW 23:29:03 60° NNW 23:32:44 10° N
Cosmos 2227 Rocket 2.4 23:28:53 56° ESE 23:28:54 56° ESE 23:34:26 10° NNE
Cosmos 909 Rocket 4.3 23:31:44 53° SE 23:32:35 57° ESE 23:39:54 10° NE
Cosmos 1633 Rocket 4.1 23:33:06 37° WNW 23:33:06 37° WNW 23:36:54 10° N
Cosmos 1933 Rocket 3.8 23:35:34 67° NNE 23:35:34 67° NNE 23:39:29 10° N
Timation 1 Rocket 4.5 23:41:04 56° SE 23:41:25 57° ESE 23:47:16 10° NE
Meteor 1-11 Rocket 3.8 23:41:19 56° ESE 23:41:43 58° E 23:47:07 10° NNE
Cosmos 2219 Rocket 3.9 23:41:15 10° NW 23:44:40 19° W 23:44:40 19° W
Cosmos 2263 Rocket 4.2 23:46:36 14° ESE 23:47:21 15° E 23:50:21 10° ENE
Cosmos 1269 Rocket 4.1 23:50:05 63° W 23:50:30 65° WNW 23:55:47 10° NNE
NOSS 2-2 (C) 4.4 23:45:06 10° NW 23:50:33 88° SW 23:52:23 52° SSE
SL-16 R/B 2.8 23:45:16 10° NNW 23:50:50 53° ENE 23:52:42 37° ESE
Cosmos 1992 Rocket 4.1 23:46:13 10° NNW 23:51:27 65° ENE 23:52:06 59° ESE
PSLV R/B 3.8 23:47:31 10° N 23:52:12 72° WNW 23:52:12 72° WNW
Resurs 1-4 Rocket 3.7 23:50:12 10° NE 23:54:19 22° E 23:55:13 22° ESE
